ヒル彗星

P/2006 D1 ( Hill )

English version
Home page
Updated on September 3, 2006

---------------------------------------------------------------------

・ プロフィール

発見日 2006年2月22日
発見光度 20.3等
発見者 Rik Hill (Catalina Sky Surve)

・ 軌道要素

Epoch 2005 Nov. 6.0 TT = JDT 2453680.5
T 2005 Oct. 25.99596 TT                                 MPC
q   1.8921927            (2000.0)            P               Q
n   0.07524606     Peri.  118.19430     -0.48637168     -0.87373779
a   5.5566565      Node     0.95234     +0.65887145     -0.37050154
e   0.6594728      Incl.   17.45963     +0.57387369     -0.31513629
P  13.10

・ 光度変化

        m1 = 15.0 + 5 logΔ + 10.0 log r

---------------------------------------------------------------------

軌道要素はM.P.E.C. 2006-E46に掲載されたものです。
光度グラフはComet for Windowsで作成したものです。

---------------------------------------------------------------------

Copyright(C) Seiichi Yoshida (comet@aerith.net). All rights reserved.